EW4427 Weather Reports


time (UTC)temp
F
wind
direction
speed
knots
gust
knots
rain 1hr
in
rain 24hr
in
rain mn
in
humidity
%
barometer
mb
20260508193543 65 211 2.6 10.4 0.00 0.00 0.00 35 1006.9
20260508193102 65 173 5.2 10.4 0.00 0.00 0.00 40 1007.0
20260508192547 65 203 4.3 10.4 0.00 0.00 0.00 36 1007.0
20260508192047 65 172 1.7 7.8 0.00 0.00 0.00 37 1007.0
20260508191555 65 197 1.7 8.7 0.00 0.00 0.00 38 1007.1
20260508191046 65 190 3.5 8.7 0.00 0.00 0.00 33 1007.1
20260508190547 66 190 2.6 8.7 0.00 0.00 0.00 33 1007.2
20260508185546 67 0 0.0 6.1 0.00 0.00 0.00 33 1007.4
20260508185046 66 184 1.7 6.1 0.00 0.00 0.00 36 1007.5
20260508184624 66 194 1.7 6.1 0.00 0.00 0.00 33 1007.6
20260508184045 65 197 2.6 7.0 0.00 0.00 0.00 35 1007.6
20260508183545 65 207 2.6 11.3 0.00 0.00 0.00 33 1007.7
20260508183051 64 209 2.6 11.3 0.00 0.00 0.00 33 1007.6
20260508182547 65 188 4.3 7.0 0.00 0.00 0.00 37 1007.7
20260508182045 66 190 1.7 4.3 0.00 0.00 0.00 35 1007.8
20260508181604 67 217 0.0 7.0 0.00 0.00 0.00 30 1007.9
20260508181049 64 169 2.6 7.0 0.00 0.00 0.00 32 1007.9
20260508180546 64 196 3.5 7.0 0.00 0.00 0.00 37 1008.0
20260508180053 65 209 0.0 5.2 0.00 0.00 0.00 33 1008.0
20260508175547 63 0 1.7 6.1 0.00 0.00 0.00 39 1008.1
20260508175047 62 188 0.9 6.1 0.00 0.00 0.00 30 1008.2
20260508174551 62 194 2.6 6.1 0.00 0.00 0.00 35 1008.3
20260508174046 62 0 2.6 7.8 0.00 0.00 0.00 35 1008.2
20260508173547 62 178 1.7 7.8 0.00 0.00 0.00 43 1008.5
20260508173053 61 193 3.5 7.8 0.00 0.00 0.00 37 1008.4
20260508172545 61 200 1.7 7.8 0.00 0.00 0.00 39 1008.6
20260508172046 61 188 2.6 7.8 0.00 0.00 0.00 39 1008.6
20260508171551 61 197 3.5 7.0 0.00 0.00 0.00 41 1008.7
20260508171045 60 188 2.6 7.8 0.00 0.00 0.00 41 1008.7
20260508170542 60 184 2.6 7.8 0.00 0.00 0.00 39 1008.8
20260508170052 61 205 2.6 5.2 0.00 0.00 0.00 41 1008.9
20260508165547 61 202 1.7 4.3 0.00 0.00 0.00 40 1009.0
20260508165047 60 191 0.9 4.3 0.00 0.00 0.00 32 1009.1
20260508164600 60 222 1.7 4.3 0.00 0.00 0.00 39 1009.1
20260508164046 60 0 0.9 3.5 0.00 0.00 0.00 29 1009.2
20260508163547 60 187 1.7 5.2 0.00 0.00 0.00 35 1009.3
20260508163051 59 0 0.9 5.2 0.00 0.00 0.00 37 1009.4
20260508162548 59 175 1.7 5.2 0.00 0.00 0.00 39 1009.5
20260508162048 59 192 2.6 5.2 0.00 0.00 0.00 42 1009.5
20260508161551 59 0 1.7 4.3 0.00 0.00 0.00 38 1009.6
20260508161047 60 194 0.0 3.5 0.00 0.00 0.00 39 1009.6
20260508160546 60 223 1.7 5.2 0.00 0.00 0.00 42 1009.7
20260508160050 59 0 1.7 5.2 0.00 0.00 0.00 41 1009.7
20260508155546 59 187 1.7 5.2 0.00 0.00 0.00 42 1009.9
20260508155047 59 178 1.7 5.2 0.00 0.00 0.00 41 1010.0
20260508154550 59 187 1.7 4.3 0.00 0.00 0.00 41 1010.1
20260508154045 59 0 0.0 2.6 0.00 0.00 0.00 36 1010.1
20260508153546 59 0 0.0 4.3 0.00 0.00 0.00 31 1010.1
20260508153125 59 198 1.7 4.3 0.00 0.00 0.00 41 1010.1
20260508152548 58 201 0.0 6.1 0.00 0.00 0.00 41 1010.1
20260508152047 58 183 2.6 6.1 0.00 0.00 0.00 40 1010.0
20260508151600 58 198 1.7 6.1 0.00 0.00 0.00 40 1010.1
20260508151047 57 0 2.6 6.1 0.00 0.00 0.00 39 1010.1
20260508150546 57 187 1.7 7.0 0.00 0.00 0.00 45 1010.1
20260508150100 56 190 4.3 7.0 0.00 0.00 0.00 47 1010.3
20260508145545 56 190 3.5 6.1 0.00 0.00 0.00 49 1010.2
20260508145045 56 211 1.7 5.2 0.00 0.00 0.00 52 1010.2
20260508144619 56 196 1.7 5.2 0.00 0.00 0.00 56 1010.2
20260508144047 55 165 3.5 6.1 0.00 0.00 0.00 53 1010.1
20260508143547 55 189 3.5 6.1 0.00 0.00 0.00 55 1010.0
20260508143059 54 179 2.6 6.1 0.00 0.00 0.00 61 1010.0
20260508142546 53 186 2.6 6.1 0.00 0.00 0.00 58 1010.1
20260508142046 53 182 1.7 6.1 0.00 0.00 0.00 63 1010.1
20260508141605 52 191 1.7 4.3 0.00 0.00 0.00 65 1010.2
20260508141045 52 179 1.7 4.3 0.00 0.00 0.00 68 1010.2
20260508140545 51 188 1.7 4.3 0.00 0.00 0.00 70 1010.4
20260508140054 51 185 2.6 5.2 0.00 0.00 0.00 73 1010.4
20260508135546 50 199 2.6 5.2 0.00 0.00 0.00 74 1010.2
20260508135049 49 190 2.6 5.2 0.00 0.00 0.00 76 1010.4
20260508134557 48 179 1.7 4.3 0.00 0.00 0.00 80 1010.4
20260508134047 46 191 1.7 3.5 0.00 0.00 0.00 87 1010.6
20260508133545 46 182 0.9 3.5 0.00 0.00 0.00 89 1010.6
20260508133115 45 192 0.0 3.5 0.00 0.00 0.00 91 1010.6
20260508132546 45 186 1.7 4.3 0.00 0.00 0.00 92 1010.6
20260508132048 44 186 1.7 5.2 0.00 0.00 0.00 93 1010.7
20260508131551 44 179 2.6 7.0 0.00 0.00 0.00 93 1010.7
20260508131048 43 189 2.6 7.0 0.00 0.00 0.00 94 1010.6
20260508130548 42 184 4.3 7.0 0.00 0.00 0.00 94 1010.6
20260508130052 42 183 2.6 5.2 0.00 0.00 0.00 94 1010.8
20260508125547 41 215 2.6 5.2 0.00 0.00 0.00 94 1010.8
20260508125043 40 186 2.6 5.2 0.00 0.00 0.00 94 1010.7
20260508124552 40 193 1.7 5.2 0.00 0.00 0.00 94 1010.7
20260508124045 39 196 1.7 5.2 0.00 0.00 0.00 94 1010.7
20260508123546 38 184 0.9 2.6 0.00 0.00 0.00 93 1010.8
20260508123100 37 188 0.9 2.6 0.00 0.00 0.00 93 1010.8
20260508122543 37 0 0.0 2.6 0.00 0.00 0.00 93 1010.8
20260508122048 36 0 0.0 2.6 0.00 0.00 0.00 93 1010.8
20260508121552 35 0 0.0 2.6 0.00 0.00 0.00 92 1010.8
20260508121046 35 179 0.0 1.7 0.00 0.00 0.00 92 1010.8
20260508120546 34 0 0.0 0.9 0.00 0.00 0.00 91 1010.7
20260508120056 34 0 0.0 0.0 0.00 0.00 0.00 91 1010.7
20260508115547 34 0 0.0 0.0 0.00 0.00 0.00 91 1010.6
20260508115047 33 0 0.0 0.0 0.00 0.00 0.00 90 1010.6
20260508114554 33 0 0.0 0.0 0.00 0.00 0.00 90 1010.6
20260508114048 33 0 0.0 0.0 0.00 0.00 0.00 90 1010.6
20260508113547 33 0 0.0 0.0 0.00 0.00 0.00 90 1010.6
20260508113108 33 0 0.0 0.0 0.00 0.00 0.00 90 1010.5
20260508112546 33 0 0.0 0.0 0.00 0.00 0.00 90 1010.5
20260508112045 33 0 0.0 0.0 0.00 0.00 0.00 90 1010.6
20260508111553 33 0 0.0 0.0 0.00 0.00 0.00 90 1010.5
20260508111043 32 0 0.0 0.0 0.00 0.00 0.00 90 1010.4
20260508110542 32 0 0.0 0.0 0.00 0.00 0.00 89 1010.4
20260508110059 32 0 0.0 0.0 0.00 0.00 0.00 89 1010.4
20260508105545 32 0 0.0 0.0 0.00 0.00 0.00 89 1010.5
20260508105046 32 0 0.0 0.0 0.00 0.00 0.00 89 1010.4
20260508104556 32 0 0.0 0.0 0.00 0.00 0.00 89 1010.4
20260508104045 33 0 0.0 0.0 0.00 0.00 0.00 89 1010.3
20260508103549 33 0 0.0 0.0 0.00 0.00 0.00 89 1010.4
20260508103059 33 0 0.0 0.0 0.00 0.00 0.00 89 1010.4
20260508102546 33 0 0.0 0.0 0.00 0.00 0.00 89 1010.4
20260508102047 33 0 0.0 0.0 0.00 0.00 0.00 89 1010.3
20260508101602 33 0 0.0 0.0 0.00 0.00 0.00 89 1010.4
20260508101047 33 0 0.0 0.0 0.00 0.00 0.00 89 1010.4
20260508100546 33 0 0.0 0.0 0.00 0.00 0.00 89 1010.4
20260508100054 33 0 0.0 0.0 0.00 0.00 0.00 89 1010.5
20260508095546 33 0 0.0 0.0 0.00 0.00 0.00 89 1010.6
20260508095046 33 0 0.0 0.0 0.00 0.00 0.00 89 1010.7
20260508094554 33 0 0.0 0.0 0.00 0.00 0.00 89 1010.6
20260508094042 33 0 0.0 0.0 0.00 0.00 0.00 89 1010.6
20260508093546 33 0 0.0 0.0 0.00 0.00 0.00 88 1010.6
20260508093053 33 0 0.0 0.0 0.00 0.00 0.00 88 1010.5
20260508092546 33 0 0.0 0.0 0.00 0.00 0.00 88 1010.6
20260508092047 33 0 0.0 0.0 0.00 0.00 0.00 88 1010.6
20260508091601 33 0 0.0 0.0 0.00 0.00 0.00 88 1010.6
20260508091047 33 0 0.0 0.0 0.00 0.00 0.00 88 1010.9
20260508090545 34 0 0.0 0.0 0.00 0.00 0.00 88 1010.8
20260508090109 34 0 0.0 0.0 0.00 0.00 0.00 88 1010.7
20260508085546 34 0 0.0 0.0 0.00 0.00 0.00 88 1010.9
20260508085047 34 0 0.0 0.0 0.00 0.00 0.00 87 1010.9
20260508084554 34 0 0.0 0.0 0.00 0.00 0.00 88 1010.9
20260508084048 34 0 0.0 0.0 0.00 0.00 0.00 87 1010.9
20260508083544 34 0 0.0 0.0 0.00 0.00 0.00 87 1011.0
20260508083049 34 0 0.0 0.0 0.00 0.00 0.00 87 1011.0
20260508082545 34 0 0.0 0.0 0.00 0.00 0.00 87 1010.8
20260508082046 34 0 0.0 0.0 0.00 0.00 0.00 88 1010.8
20260508081602 34 0 0.0 0.9 0.00 0.00 0.00 87 1010.9
20260508081044 34 0 0.0 0.9 0.00 0.00 0.00 87 1010.9
20260508080546 34 0 0.0 0.9 0.00 0.00 0.00 87 1010.9
20260508080053 35 0 0.0 0.0 0.00 0.00 0.00 87 1010.9
20260508075546 35 0 0.0 0.0 0.00 0.00 0.00 87 1011.2
20260508075043 35 0 0.0 0.0 0.00 0.00 0.00 87 1010.9
20260508074555 35 0 0.0 0.0 0.00 0.00 0.00 87 1011.0
20260508074045 35 0 0.0 0.9 0.00 0.00 0.00 87 1011.0
20260508073547 35 0 0.0 0.9 0.00 0.00 0.00 87 1011.0
20260508073101 35 0 0.0 1.7 0.00 0.00 0.00 87 1011.1
20260508072546 35 0 0.0 1.7 0.00 0.00 0.00 86 1010.9
20260508072046 35 0 0.0 1.7 0.00 0.00 0.00 86 1011.1
20260508071600 35 0 0.0 1.7 0.00 0.00 0.00 86 1011.3
20260508071045 35 0 0.0 0.9 0.00 0.00 0.00 86 1011.1
20260508070548 36 0 0.0 0.9 0.00 0.00 0.00 85 1011.3
20260508070050 36 0 0.0 0.0 0.00 0.00 0.00 85 1011.3
20260508065542 36 0 0.0 0.0 0.00 0.00 0.00 86 1011.4
20260508065045 36 0 0.0 0.0 0.00 0.00 0.00 86 1011.4
20260508064556 36 0 0.0 0.0 0.00 0.00 0.00 86 1011.4
20260508064048 36 0 0.0 0.0 0.00 0.00 0.00 86 1011.5
20260508063544 36 0 0.0 0.0 0.00 0.00 0.00 86 1011.4
20260508063051 36 0 0.0 0.0 0.00 0.00 0.00 86 1011.4
20260508062542 36 0 0.0 0.0 0.00 0.00 0.00 86 1011.4
20260508062042 36 0 0.0 0.0 0.00 0.00 0.00 86 1011.5
20260508061554 36 0 0.0 0.0 0.00 0.00 0.00 86 1011.6
20260508061047 36 0 0.0 0.9 0.00 0.00 0.00 86 1011.8
20260508060546 36 0 0.0 0.9 0.00 0.00 0.00 86 1011.8
20260508060055 36 0 0.0 0.9 0.00 0.00 0.00 86 1011.8
20260508055546 36 0 0.0 0.0 0.00 0.00 0.00 85 1011.8
20260508055045 36 0 0.0 0.0 0.00 0.00 0.00 85 1011.8
20260508054550 37 0 0.0 0.9 0.00 0.00 0.00 85 1011.8
20260508054046 37 0 0.0 1.7 0.00 0.00 0.00 86 1011.8
20260508053550 37 0 0.0 1.7 0.00 0.00 0.00 86 1011.8
20260508053115 37 0 0.0 1.7 0.00 0.00 0.00 86 1011.8
20260508052547 37 0 0.0 0.0 0.00 0.00 0.00 85 1011.9
20260508052043 37 0 0.0 0.0 0.00 0.00 0.00 85 1011.8
20260508051554 37 0 0.0 0.0 0.00 0.00 0.00 85 1011.8
20260508051044 37 0 0.0 0.0 0.00 0.00 0.00 85 1011.8
20260508050544 37 0 0.0 0.9 0.00 0.00 0.00 85 1011.8
20260508050055 37 0 0.0 0.9 0.00 0.00 0.00 85 1011.7
20260508045546 37 0 0.0 0.9 0.00 0.00 0.00 85 1011.8
20260508045047 37 0 0.0 0.9 0.00 0.00 0.00 85 1011.6
20260508044555 37 0 0.0 0.9 0.00 0.00 0.00 85 1011.6
20260508044047 37 0 0.0 0.9 0.00 0.00 0.00 85 1011.6
20260508043547 37 0 0.0 0.9 0.00 0.00 0.00 85 1011.5
20260508043054 37 0 0.0 0.9 0.00 0.00 0.00 84 1011.5
20260508042548 37 0 0.0 0.0 0.00 0.00 0.00 84 1011.5
20260508042046 37 0 0.0 0.0 0.00 0.00 0.00 83 1011.5
20260508041613 37 0 0.0 0.0 0.00 0.00 0.00 83 1011.5
20260508041047 38 0 0.0 0.0 0.00 0.00 0.00 83 1011.4
20260508040548 38 0 0.0 0.9 0.00 0.00 0.00 83 1011.2
20260508040107 38 0 0.0 0.9 0.00 0.00 0.00 83 1011.2
20260508035549 38 0 0.0 0.0 0.00 0.00 0.00 82 1011.3
20260508035049 39 0 0.0 0.0 0.00 0.00 0.00 82 1011.3
20260508034551 39 0 0.0 0.0 0.00 0.00 0.00 82 1011.3
20260508034047 39 0 0.0 0.9 0.00 0.00 0.00 82 1011.2
20260508033547 39 0 0.0 0.9 0.00 0.00 0.00 82 1011.2
20260508033053 39 0 0.0 0.9 0.00 0.00 0.00 82 1011.2
20260508032548 39 0 0.0 0.0 0.00 0.00 0.00 82 1011.1
20260508032048 39 0 0.0 0.0 0.00 0.00 0.00 81 1011.0
20260508031551 39 0 0.0 0.9 0.00 0.00 0.00 81 1010.9
20260508031049 39 0 0.0 0.9 0.00 0.00 0.00 80 1011.0
20260508030548 40 0 0.0 0.9 0.00 0.00 0.00 80 1011.0
20260508030051 40 0 0.0 0.0 0.00 0.00 0.00 79 1011.0
20260508025545 40 0 0.0 0.0 0.00 0.00 0.00 79 1011.1
20260508025047 40 0 0.0 1.7 0.00 0.00 0.00 79 1011.0
20260508024603 40 0 0.0 1.7 0.00 0.00 0.00 79 1010.9
20260508024050 40 0 0.0 1.7 0.00 0.00 0.00 78 1010.9
20260508023546 40 0 0.0 0.9 0.00 0.00 0.00 78 1011.0
20260508023052 40 0 0.0 2.6 0.00 0.00 0.00 77 1010.9
20260508022548 41 0 0.0 2.6 0.00 0.00 0.00 77 1010.7
20260508022043 41 0 0.0 2.6 0.00 0.00 0.00 76 1010.7
20260508021555 41 0 0.0 2.6 0.00 0.00 0.00 75 1010.6
20260508021045 41 38 0.0 2.6 0.00 0.00 0.00 75 1010.6
20260508020545 41 0 0.0 3.5 0.00 0.00 0.00 74 1010.5
20260508020053 42 13 0.0 3.5 0.00 0.00 0.00 73 1010.4
20260508015547 42 30 0.0 3.5 0.00 0.00 0.00 72 1010.4
20260508015048 42 19 0.9 3.5 0.00 0.00 0.00 72 1010.3
20260508014551 42 22 0.0 3.5 0.00 0.00 0.00 71 1010.2
20260508014049 43 0 0.0 2.6 0.00 0.00 0.00 70 1010.2
20260508013546 43 0 0.0 2.6 0.00 0.00 0.00 69 1010.1
20260508013052 44 32 0.0 3.5 0.00 0.00 0.00 68 1010.1
20260508012549 44 0 0.0 3.5 0.00 0.00 0.00 67 1010.1
20260508012047 44 16 0.0 7.0 0.00 0.00 0.00 67 1010.0
20260508011556 45 5 1.7 7.0 0.00 0.00 0.00 66 1010.0
20260508011045 45 33 0.9 4.3 0.00 0.00 0.00 65 1010.0
20260508010548 46 9 0.0 4.3 0.00 0.00 0.00 66 1010.0
20260508010050 46 24 0.0 2.6 0.00 0.00 0.00 65 1009.8
20260508005549 46 0 0.9 3.5 0.00 0.00 0.00 65 1009.6
20260508005042 47 20 0.0 3.5 0.00 0.00 0.00 65 1009.5
20260508004555 47 30 1.7 4.3 0.00 0.00 0.00 64 1009.4
20260508004046 47 0 0.0 4.3 0.00 0.00 0.00 64 1009.3
20260508003542 47 0 0.9 4.3 0.00 0.00 0.00 64 1009.2
20260508003048 48 69 0.0 3.5 0.00 0.00 0.00 64 1009.1
20260508002545 48 85 0.0 3.5 0.00 0.00 0.00 64 1009.2
20260508002049 48 66 0.0 3.5 0.00 0.00 0.00 63 1009.3
20260508001550 48 22 0.9 3.5 0.00 0.00 0.00 63 1009.3
20260508001047 48 0 0.0 2.6 0.00 0.00 0.00 64 1009.2
20260508000546 49 51 0.0 2.6 0.00 0.00 0.00 64 1009.3
20260508000056 49 9 0.0 2.6 0.00 0.00 0.00 64 1009.1
20260507235547 49 0 0.0 4.3 0.00 0.00 0.00 65 1009.1
20260507235045 49 17 1.7 4.3 0.00 0.00 0.00 64 1009.2
20260507234551 49 0 0.0 5.2 0.00 0.00 0.00 64 1009.2
20260507234042 49 22 0.9 5.2 0.00 0.00 0.00 64 1009.2
20260507233542 49 57 0.9 4.3 0.00 0.00 0.00 64 1009.1
20260507233101 50 0 0.9 3.5 0.00 0.00 0.00 64 1009.2
20260507232542 50 58 0.0 3.5 0.00 0.00 0.00 66 1009.2
20260507232042 50 134 0.0 3.5 0.00 0.00 0.00 66 1009.2
20260507231554 50 128 0.0 2.6 0.00 0.00 0.00 65 1009.2
20260507231044 50 138 0.9 3.5 0.00 0.00 0.00 65 1009.2
20260507230544 50 150 0.9 3.5 0.00 0.00 0.00 64 1009.1
20260507230054 51 0 0.9 3.5 0.00 0.00 0.00 66 1009.1
20260507225542 51 60 0.0 3.5 0.00 0.00 0.00 66 1009.2
20260507225045 51 0 0.0 3.5 0.00 0.00 0.00 70 1009.2
20260507224556 51 0 0.9 5.2 0.00 0.00 0.00 67 1009.1
20260507224046 51 0 0.9 5.2 0.00 0.00 0.00 67 1009.0
20260507223545 51 191 2.6 5.2 0.00 0.00 0.00 69 1009.2
20260507223048 50 116 0.9 5.2 0.00 0.00 0.00 66 1009.3
20260507222545 50 119 0.9 5.2 0.00 0.00 0.00 68 1009.2
20260507222042 50 105 0.9 5.2 0.00 0.00 0.00 67 1009.3
20260507221554 50 192 0.9 5.2 0.00 0.00 0.00 67 1009.3
20260507221045 50 93 0.9 5.2 0.00 0.00 0.00 67 1009.4
20260507220542 50 0 0.9 4.3 0.00 0.00 0.00 67 1009.3
20260507220046 49 113 0.9 4.3 0.00 0.00 0.00 65 1009.5
20260507215546 50 153 1.7 7.0 0.00 0.00 0.00 65 1009.5
20260507215043 50 0 0.9 7.0 0.00 0.00 0.00 62 1009.5
20260507214603 50 168 0.9 7.0 0.00 0.00 0.00 62 1009.6
20260507214042 50 122 0.9 5.2 0.00 0.00 0.00 61 1009.5
20260507213543 50 0 0.9 7.8 0.00 0.00 0.00 60 1009.4
20260507213101 50 150 0.9 7.8 0.00 0.00 0.00 59 1009.5
20260507212548 51 146 1.7 7.0 0.00 0.00 0.00 57 1009.4
20260507212044 50 140 0.9 8.7 0.00 0.00 0.00 61 1009.6
20260507211551 50 80 1.7 8.7 0.00 0.00 0.00 57 1009.6
20260507211042 51 129 1.7 8.7 0.00 0.00 0.00 55 1009.6
20260507210545 52 190 1.7 8.7 0.00 0.00 0.00 57 1009.5
20260507210051 53 161 0.9 7.0 0.00 0.00 0.00 56 1009.8
20260507205546 52 149 1.7 7.0 0.00 0.00 0.00 54 1009.7
20260507205043 51 193 0.9 7.8 0.00 0.00 0.00 57 1009.7
20260507204558 51 0 2.6 7.8 0.00 0.00 0.00 53 1009.7
20260507204046 51 165 0.9 7.0 0.00 0.00 0.00 56 1009.6
20260507203543 51 0 0.9 5.2 0.00 0.00 0.00 59 1009.8
20260507203058 51 102 1.7 7.0 0.00 0.00 0.00 55 1009.8
20260507202549 52 5 1.7 7.0 0.00 0.00 0.00 56 1010.0
20260507202047 51 0 0.9 5.2 0.00 0.00 0.00 62 1010.2
20260507201603 50 82 0.0 5.2 0.00 0.00 0.00 65 1010.4
20260507201048 49 80 0.9 10.4 0.00 0.00 0.00 61 1010.6
20260507200550 50 31 2.6 10.4 0.00 0.00 0.00 59 1010.8
20260507200052 50 59 1.7 7.8 0.00 0.00 0.00 54 1010.6
20260507195547 50 0 0.9 7.0 0.00 0.00 0.00 54 1010.6
20260507195047 50 21 0.9 7.0 0.00 0.00 0.00 54 1010.6
20260507194618 50 43 2.6 7.0 0.00 0.00 0.00 54 1010.6
20260507194046 50 28 2.6 8.7 0.00 0.00 0.00 54 1010.2